This is the latest recevied weather packets stored in our database for station/object LU8FJH-13. If no packets are shown the sender has not sent any weather packets the latest 10 day(s).
| Time | Temp. | Humidity | Pressure | Rain* | Wind** | Luminosity | Snow |
|---|---|---|---|---|---|---|---|
| 1778081642 | 30.56° C | 60% | 1006.2 hPa | 0 mm | - | - | - |
| 1778081102 | 30.56° C | 61% | 1006.1 hPa | 0 mm | - | - | - |
| 1778080562 | 30° C | 65% | 1006.3 hPa | 0 mm | - | - | - |
| 1778080022 | 29.44° C | 64% | 1006.5 hPa | 0 mm | - | - | - |
| 1778079482 | 29.44° C | 64% | 1006.7 hPa | 0 mm | - | - | - |
| 1778078942 | 29.44° C | 66% | 1006.9 hPa | 0 mm | - | - | - |
| 1778078402 | 28.33° C | 69% | 1007.1 hPa | 0 mm | - | - | - |
| 1778077862 | 27.78° C | 71% | 1007.1 hPa | 0 mm | - | - | - |
| 1778077322 | 27.22° C | 72% | 1007.1 hPa | 0 mm | - | - | - |
| 1778076782 | 27.22° C | 72% | 1007.5 hPa | 0 mm | - | - | - |
| 1778076242 | 26.67° C | 75% | 1007.3 hPa | 0 mm | - | - | - |
| 1778075702 | 26.67° C | 75% | 1007.3 hPa | 0 mm | - | - | - |
| 1778075162 | 26.11° C | 77% | 1007.3 hPa | 0 mm | - | - | - |
| 1778074622 | 26.11° C | 78% | 1007.5 hPa | 0 mm | - | - | - |
| 1778074082 | 25.56° C | 80% | 1007.5 hPa | 0 mm | - | - | - |
| 1778073542 | 25° C | 81% | 1007.6 hPa | 0 mm | - | - | - |
| 1778073002 | 25° C | 82% | 1007.7 hPa | 0 mm | - | - | - |
| 1778072462 | 24.44° C | 82% | 1007.7 hPa | 0 mm | - | - | - |
| 1778071922 | 25° C | 83% | 1007.9 hPa | 0 mm | - | - | - |
| 1778071382 | 24.44° C | 84% | 1008.1 hPa | 0 mm | - | - | - |
| 1778070843 | 25° C | 86% | 1008 hPa | 0 mm | - | - | - |
| 1778070302 | 24.44° C | 91% | 1007.9 hPa | 0 mm | - | - | - |
| 1778069762 | 23.33° C | 93% | 1008.1 hPa | 0 mm | - | - | - |
| 1778069222 | 22.78° C | 92% | 1007.9 hPa | 0 mm | - | - | - |
| 1778068682 | 22.78° C | 95% | 1007.9 hPa | 0 mm | - | - | - |
* Rain latest hour (hover to see other rain measurements)
** Current wind speed in m/s (hover to see current wind gust speed)